Flag for South Africa Weather past 2 weeks in Rustenburg, South Africa

Now
73 °F

Passing clouds.


Feels Like: 77 °F
Forecast: 51 / 83 °F
Wind: 7 mph from North

Location: Lanseria Civ / Mil

Current Time: Sep 21, 2014 at 2:31:27 PM

Latest Report: Sep 21, 2014 at 1:47 PM


Visibility: N/A

Pressure: 30.30 "Hg

Humidity: 38%

Dew point: 46 °F

Location of RustenburgLocation

Historic Weather in Rustenburg — Graph

°F

Rustenburg temperature yesterday

Maximum temperature yesterday: 75 °F (at 2:00 PM)
Minimum temperature yesterday: 50 °F (at 5:00 AM)
Average temperature yesterday: 61 °F

Past Weeks' High & Low Weather Summary

 TemperatureHumidityPressure
High88 °F (Sep 12, 2:00 PM)82% (Sep 21, 1:00 AM)30.45 "Hg (Sep 21, 1:00 AM)
Low46 °F (Sep 19, 4:00 AM)6% (Sep 8, 3:00 PM)29.98 "Hg (Sep 18, 3:00 PM)
Average69 °F29%30.27 "Hg
* Reported Sep 6 1:00 PM — Sep 21 1:00 PM, Rustenburg, Weather by CustomWeather, © 2014

Note: Actual official high and low records may vary slightly from our data, if they occured in-between our weather recording intervals... More about our weather records

Advertising

Rustenburg weather history for previous 24 hours

 ConditionsComfort  
Time TempWeatherWind HumidityBarometerVisibility
1:00 PM
Sep 21
70 °FScattered clouds.6 mph46%30.33 "HgN/A
12:00 PM66 °FScattered clouds.6 mph52%30.39 "HgN/A
11:00 AM63 °FScattered clouds.7 mph59%30.42 "HgN/A
10:00 AM59 °FPartly sunny.7 mph68%30.42 "HgN/A
9:00 AM55 °FPartly sunny.6 mph77%30.42 "HgN/A
8:00 AM54 °FPartly sunny.7 mph82%30.42 "HgN/A
7:00 AM54 °FPartly sunny.8 mph82%30.39 "HgN/A
6:00 AM54 °FPartly sunny.7 mph82%30.39 "HgN/A
5:00 AM54 °FCool.12 mph82%30.36 "HgN/A
4:00 AM54 °FCool.9 mph82%30.36 "HgN/A
3:00 AM54 °FCool.9 mph82%30.36 "HgN/A
2:00 AM54 °FCool.8 mph82%30.36 "HgN/A
1:00 AM54 °FCool.6 mph82%30.39 "HgN/A
12:00 AM55 °FCool.8 mph77%30.39 "HgN/A
11:00 PM
Sep 20
57 °FCool.14 mph77%30.39 "HgN/A
10:00 PM59 °FPassing clouds.13 mph72%30.39 "HgN/A
9:00 PM61 °FPassing clouds.13 mph68%30.39 "HgN/A
8:00 PM63 °FPassing clouds.13 mph64%30.33 "HgN/A
7:00 PM64 °FThunderstorms. Passing clouds.17 mph60%30.30 "Hg1 mi
3:00 PM75 °FScattered clouds.15 mph34%30.24 "HgN/A
2:00 PM75 °FPassing clouds.8 mph34%30.27 "HgN/A
Weather by CustomWeather, © 2014

See weather overviewHow to use our weather pages